| time (UTC) | temp C | wind direction | speed KPH | gust KPH | rain 1hr cm | rain 24hr cm | rain mn cm | humidity % | barometer mb |
| 20260505051521 | 17 | 207 | 11.3 | 33.8 | 0.00 | 0.00 | 0.00 | 64 | 999.6 |
| 20260505041504 | 16 | 169 | 6.4 | 16.1 | 0.00 | 0.00 | 0.00 | 62 | 999.5 |
| 20260505040105 | 16 | 155 | 6.4 | 14.5 | 0.00 | 0.00 | 0.00 | 62 | 999.7 |
| 20260505034558 | 16 | 187 | 6.4 | 16.1 | 0.00 | 0.00 | 0.00 | 60 | 1000.0 |
| 20260505033028 | 17 | 182 | 4.8 | 14.5 | 0.00 | 0.00 | 0.00 | 59 | 1000.0 |
| 20260505031530 | 17 | 223 | 11.3 | 19.3 | 0.00 | 0.00 | 0.00 | 58 | 1000.2 |
| 20260505030032 | 17 | 193 | 12.9 | 27.4 | 0.00 | 0.00 | 0.00 | 54 | 1000.3 |
| 20260505024527 | 16 | 172 | 6.4 | 11.3 | 0.00 | 0.00 | 0.00 | 52 | 1000.0 |
| 20260505023030 | 16 | 167 | 4.8 | 9.7 | 0.00 | 0.00 | 0.00 | 52 | 999.9 |
| 20260505021527 | 17 | 192 | 3.2 | 8.0 | 0.00 | 0.00 | 0.00 | 48 | 1000.0 |
| 20260505020052 | 17 | 208 | 3.2 | 11.3 | 0.00 | 0.00 | 0.00 | 47 | 1000.2 |
| 20260505014605 | 17 | 196 | 4.8 | 11.3 | 0.00 | 0.00 | 0.00 | 47 | 1000.3 |
| 20260505013050 | 17 | 232 | 6.4 | 11.3 | 0.00 | 0.00 | 0.00 | 48 | 1000.4 |
| 20260505011549 | 17 | 196 | 1.6 | 6.4 | 0.00 | 0.00 | 0.00 | 47 | 1000.2 |
| 20260505010048 | 18 | 211 | 4.8 | 14.5 | 0.00 | 0.00 | 0.00 | 46 | 1000.2 |
| 20260505004548 | 18 | 224 | 3.2 | 12.9 | 0.00 | 0.00 | 0.00 | 44 | 1000.2 |
| 20260505003044 | 18 | 217 | 6.4 | 11.3 | 0.00 | 0.00 | 0.00 | 43 | 1000.2 |
| 20260505001556 | 20 | 230 | 6.4 | 16.1 | 0.00 | 0.00 | 0.00 | 40 | 1000.2 |
| 20260505000058 | 20 | 240 | 6.4 | 19.3 | 0.00 | 0.00 | 0.00 | 37 | 1000.3 |
| 20260504234602 | 21 | 244 | 9.7 | 22.5 | 0.00 | 0.03 | 0.00 | 36 | 1000.3 |
| 20260504233042 | 21 | 269 | 9.7 | 20.9 | 0.00 | 0.03 | 0.00 | 35 | 1000.2 |
| 20260504231540 | 21 | 244 | 11.3 | 17.7 | 0.00 | 0.03 | 0.00 | 34 | 1000.1 |
| 20260504230039 | 22 | 296 | 9.7 | 22.5 | 0.00 | 0.03 | 0.00 | 33 | 1000.2 |
| 20260504224541 | 22 | 263 | 11.3 | 22.5 | 0.00 | 0.03 | 0.00 | 33 | 1000.2 |
| 20260504223041 | 22 | 242 | 8.0 | 25.7 | 0.00 | 0.03 | 0.00 | 33 | 1000.1 |
| 20260504221537 | 22 | 250 | 17.7 | 32.2 | 0.00 | 0.03 | 0.00 | 31 | 1000.1 |
| 20260504220032 | 23 | 225 | 17.7 | 33.8 | 0.00 | 0.03 | 0.00 | 29 | 1000.0 |
| 20260504214529 | 23 | 260 | 19.3 | 33.8 | 0.00 | 0.03 | 0.00 | 29 | 1000.2 |
| 20260504213044 | 23 | 259 | 14.5 | 45.1 | 0.00 | 0.03 | 0.00 | 30 | 1000.2 |
| 20260504211524 | 23 | 284 | 16.1 | 35.4 | 0.00 | 0.03 | 0.00 | 32 | 1000.2 |
| 20260504210026 | 23 | 207 | 19.3 | 35.4 | 0.00 | 0.03 | 0.00 | 32 | 1000.4 |
| 20260504204523 | 23 | 213 | 17.7 | 45.1 | 0.00 | 0.03 | 0.00 | 33 | 1000.4 |
| 20260504203016 | 23 | 207 | 22.5 | 41.8 | 0.00 | 0.03 | 0.00 | 33 | 1000.6 |
| 20260504201522 | 23 | 241 | 20.9 | 51.5 | 0.00 | 0.03 | 0.00 | 34 | 1000.8 |
| 20260504200016 | 22 | 244 | 22.5 | 38.6 | 0.00 | 0.03 | 0.00 | 35 | 1000.8 |
| 20260504194511 | 22 | 261 | 24.1 | 37.0 | 0.00 | 0.03 | 0.00 | 35 | 1001.1 |
| 20260504193049 | 22 | 240 | 20.9 | 40.2 | 0.00 | 0.03 | 0.00 | 34 | 1001.3 |
| 20260504191536 | 22 | 237 | 19.3 | 38.6 | 0.00 | 0.03 | 0.00 | 38 | 1001.5 |
| 20260504190031 | 22 | 235 | 16.1 | 37.0 | 0.00 | 0.03 | 0.00 | 39 | 1001.8 |
| 20260504184529 | 21 | 267 | 19.3 | 33.8 | 0.00 | 0.03 | 0.00 | 41 | 1001.9 |
| 20260504183026 | 21 | 233 | 19.3 | 35.4 | 0.00 | 0.03 | 0.00 | 40 | 1002.1 |
| 20260504181523 | 21 | 219 | 25.7 | 38.6 | 0.00 | 0.03 | 0.00 | 42 | 1002.4 |
| 20260504180051 | 20 | 230 | 24.1 | 41.8 | 0.00 | 0.03 | 0.00 | 43 | 1002.6 |
| 20260504174550 | 20 | 238 | 14.5 | 35.4 | 0.00 | 0.03 | 0.00 | 45 | 1002.5 |
| 20260504173025 | 20 | 201 | 19.3 | 35.4 | 0.00 | 0.03 | 0.00 | 45 | 1002.7 |
| 20260504171519 | 20 | 237 | 17.7 | 35.4 | 0.00 | 0.03 | 0.00 | 45 | 1002.7 |
| 20260504081512 | 10 | 221 | 12.9 | 25.7 | 0.00 | 0.03 | 0.00 | 58 | 1005.0 |